Waarnemingen

Advertentie
Mijn weer
Santiago de Compostela/Labacolla, Spanje (8042): temperatuur & dauwpunt: 18.10.2018 00:00:00 - 24.10.2018 00:00:00 (CEST)Santiago de Compostela/Labacolla, Spanje (8042): windsnelheid: 18.10.2018 00:00:00 - 24.10.2018 00:00:00 (CEST)Santiago de Compostela/Labacolla, Spanje (8042): windrichting: 18.10.2018 00:00:00 - 24.10.2018 00:00:00 (CEST)Santiago de Compostela/Labacolla, Spanje (8042): luchtdruk: 18.10.2018 00:00:00 - 24.10.2018 00:00:00 (CEST)Santiago de Compostela/Labacolla, Spanje (8042): zicht: 18.10.2018 00:00:00 - 24.10.2018 00:00:00 (CEST)
Datum & Tijd tt [°C] td [°C] ff [km/u] ff [kn] dd ppp [hPa] vv [km]
24.10.2018 00:00:00 12,2 10,8 4 2 OZO 1028,3 22
23.10.2018 23:00:00 12,9 10,9 4 2 OZO 1027,8 21
23.10.2018 22:00:00 13,5 10,9 8 4 ZO 1027,5 24
23.10.2018 21:00:00 14,6 11,2 4 2 OZO 1027,1 28
23.10.2018 20:00:00 15,5 11,9 5 3 O 1026,6 30
23.10.2018 19:00:00 19,2 12,9 2 1 N 1025,6 30
23.10.2018 18:00:00 20,1 12,3 4 2 O 1025,2 30
23.10.2018 17:00:00 20,9 12,0 5 3 ONO 1024,8 30
23.10.2018 16:00:00 - - - - - - 30
23.10.2018 15:00:00 20,5 9,6 8 4 O 1025,3 30
23.10.2018 14:00:00 19,0 9,4 8 4 O 1026,0 30
23.10.2018 13:00:00 17,2 9,0 9 5 O 1026,7 19
23.10.2018 12:00:00 15,7 9,7 8 4 OZO 1027,1 30
23.10.2018 11:00:00 13,4 8,8 13 7 OZO 1027,5 30
23.10.2018 10:00:00 11,0 7,9 11 6 ZO 1027,7 30
23.10.2018 09:00:00 10,3 7,2 4 2 O 1027,0 50
23.10.2018 08:00:00 10,6 7,1 8 4 ZO 1026,8 30
23.10.2018 07:00:00 11,2 7,3 5 3 OZO 1026,8 30
23.10.2018 06:00:00 12,4 8,3 0 0 N 1026,6 30
23.10.2018 05:00:00 12,7 9,1 5 3 NO 1026,7 30
23.10.2018 04:00:00 13,0 9,4 8 4 O 1027,0 30
23.10.2018 03:00:00 13,4 9,3 8 4 ONO 1026,7 30
23.10.2018 02:00:00 12,8 7,9 4 2 ONO 1027,0 30
23.10.2018 01:00:00 12,8 8,1 5 3 NO 1027,1 30
23.10.2018 00:00:00 13,4 8,0 8 4 N 1027,0 30
22.10.2018 23:00:00 13,4 8,4 9 5 NNO 1026,9 30
22.10.2018 22:00:00 13,8 9,0 9 5 NNO 1026,6 30
22.10.2018 21:00:00 14,5 8,9 8 4 NO 1026,3 30
22.10.2018 20:00:00 15,3 8,9 8 4 NO 1025,5 25
22.10.2018 19:00:00 17,3 9,3 8 4 ONO 1024,9 30
22.10.2018 18:00:00 18,8 10,0 8 4 NNO 1024,4 30
22.10.2018 17:00:00 19,5 10,7 9 5 NO 1024,1 30
22.10.2018 16:00:00 - - - - - - 30
22.10.2018 15:00:00 20,3 11,3 8 4 NNO 1024,2 30
22.10.2018 14:00:00 19,8 10,3 5 3 NO 1024,8 30
22.10.2018 13:00:00 18,1 12,1 8 4 ONO 1025,2 26
22.10.2018 12:00:00 16,2 11,8 4 2 NO 1025,5 16
22.10.2018 11:00:00 14,1 11,5 4 2 ONO 1025,7 10
22.10.2018 10:00:00 11,8 10,7 0 0 N 1025,6 9
22.10.2018 09:00:00 11,1 10,3 0 0 N 1024,9 8
22.10.2018 08:00:00 11,7 10,9 2 1 NNO 1024,5 12
22.10.2018 07:00:00 11,8 11,0 2 1 O 1024,2 8
22.10.2018 06:00:00 12,1 11,3 0 0 N 1023,9 7
22.10.2018 05:00:00 12,5 11,7 0 0 N 1023,7 15
22.10.2018 04:00:00 13,0 11,9 0 0 N 1023,6 7
22.10.2018 03:00:00 13,3 12,0 4 2 NNO 1023,5 8
22.10.2018 02:00:00 13,4 12,1 4 2 N 1023,3 15
22.10.2018 01:00:00 - - - - - - 9
22.10.2018 00:00:00 14,2 12,4 2 1 O 1022,8 8
21.10.2018 23:00:00 14,9 12,8 4 2 NO 1022,1 10
21.10.2018 22:00:00 15,5 13,0 2 1 ONO 1021,7 12
21.10.2018 21:00:00 17,3 13,6 8 4 N 1020,9 16
21.10.2018 20:00:00 19,1 14,6 8 4 NNO 1020,0 30
21.10.2018 19:00:00 20,9 15,2 4 2 NNO 1019,0 30
21.10.2018 18:00:00 22,2 15,1 4 2 NNO 1018,8 30
21.10.2018 17:00:00 20,9 14,0 0 0 N 1019,3 55
21.10.2018 16:00:00 - - - - - - 30
21.10.2018 15:00:00 21,7 15,0 5 3 O 1019,6 40
21.10.2018 14:00:00 19,8 14,3 4 2 O 1020,5 40
21.10.2018 13:00:00 19,3 14,5 4 2 OZO 1020,9 30
21.10.2018 12:00:00 19,1 12,9 4 2 O 1021,1 30
21.10.2018 11:00:00 17,2 12,3 4 2 O 1021,4 40
21.10.2018 10:00:00 14,5 11,6 4 2 ZO 1021,7 26
21.10.2018 09:00:00 14,6 11,0 5 3 ZO 1021,2 30
21.10.2018 08:00:00 14,1 11,1 5 3 OZO 1020,7 30
21.10.2018 07:00:00 14,9 11,1 4 2 ZO 1020,5 23
21.10.2018 06:00:00 14,0 11,3 8 4 O 1020,4 17
21.10.2018 05:00:00 14,0 11,5 5 3 OZO 1020,7 8
21.10.2018 04:00:00 12,8 11,5 5 3 O 1021,0 9
21.10.2018 03:00:00 12,0 11,2 4 2 O 1021,4 4,7
21.10.2018 02:00:00 12,6 11,8 2 1 N 1022,0 6
21.10.2018 01:00:00 11,9 10,8 0 0 N 1022,3 6
21.10.2018 00:00:00 12,9 11,9 0 0 N 1022,3 7
20.10.2018 23:00:00 13,1 11,8 0 0 N 1022,0 8
20.10.2018 22:00:00 14,1 12,1 9 5 N 1021,4 7
20.10.2018 21:00:00 14,9 12,2 8 4 N 1020,9 10
20.10.2018 20:00:00 16,1 12,3 5 3 NO 1020,1 30
20.10.2018 19:00:00 17,9 12,8 9 5 NNO 1019,4 16
20.10.2018 18:00:00 19,7 13,3 8 4 NO 1019,0 20
20.10.2018 17:00:00 21,0 13,1 5 3 O 1019,2 25
20.10.2018 16:00:00 20,9 12,5 5 3 ONO 1019,6 23
20.10.2018 15:00:00 20,3 12,2 8 4 ONO 1020,3 25
20.10.2018 14:00:00 19,8 13,1 8 4 NO 1021,4 25
20.10.2018 13:00:00 18,7 11,8 9 5 NO 1022,0 29
20.10.2018 12:00:00 17,2 11,3 9 5 NNO 1022,1 27
20.10.2018 11:00:00 15,4 11,1 4 2 NNO 1022,3 12
20.10.2018 10:00:00 11,4 10,1 4 2 NNW 1022,2 7
20.10.2018 09:00:00 11,8 9,9 5 3 N 1021,4 10
20.10.2018 08:00:00 12,0 10,2 4 2 N 1021,3 9
20.10.2018 07:00:00 11,9 10,5 4 2 NNO 1021,0 8
20.10.2018 06:00:00 12,6 10,8 5 3 NNO 1020,7 9
20.10.2018 05:00:00 12,8 11,0 4 2 NNO 1020,9 10
20.10.2018 04:00:00 13,1 11,0 9 5 N 1021,1 10
20.10.2018 03:00:00 13,7 11,2 5 3 NNO 1021,0 13
20.10.2018 02:00:00 13,9 11,4 8 4 NNO 1021,2 12
20.10.2018 01:00:00 14,3 11,3 5 3 N 1020,7 16
20.10.2018 00:00:00 14,1 11,6 8 4 NNO 1020,7 12
19.10.2018 23:00:00 14,2 11,5 5 3 N 1020,8 12
19.10.2018 22:00:00 14,6 11,6 9 5 N 1020,1 14
19.10.2018 21:00:00 15,1 11,7 9 5 NNO 1019,6 15
19.10.2018 20:00:00 15,8 12,2 11 6 NNO 1018,8 18
19.10.2018 19:00:00 17,5 13,0 8 4 NO 1018,0 21
19.10.2018 18:00:00 18,2 13,2 9 5 ONO 1017,6 22
19.10.2018 17:00:00 18,9 13,2 11 6 NO 1017,3 23
19.10.2018 16:00:00 18,9 13,4 9 5 NO 1017,3 22
19.10.2018 15:00:00 19,6 12,7 13 7 NO 1017,6 26
19.10.2018 14:00:00 19,1 12,5 13 7 NNO 1018,2 22
19.10.2018 13:00:00 18,2 13,2 11 6 NNO 1018,5 16
19.10.2018 12:00:00 16,5 13,7 11 6 N 1019,0 10
19.10.2018 11:00:00 15,0 13,5 13 7 N 1019,1 5
19.10.2018 10:00:00 13,7 12,6 11 6 N 1018,7 5
19.10.2018 09:00:00 12,9 12,3 11 6 N 1018,2 4,4
19.10.2018 08:00:00 12,8 11,9 21 11 N 1017,9 6
19.10.2018 07:00:00 12,7 12,1 8 4 N 1017,2 7
19.10.2018 06:00:00 13,3 12,5 4 2 ONO 1017,5 7
19.10.2018 05:00:00 14,1 12,8 8 4 N 1018,0 11
19.10.2018 04:00:00 14,3 13,0 16 9 N 1018,4 9
19.10.2018 03:00:00 13,9 12,9 13 7 N 1018,6 7
19.10.2018 02:00:00 14,0 12,8 13 7 N 1018,3 12
19.10.2018 01:00:00 14,3 12,9 15 8 N 1018,4 10
19.10.2018 00:00:00 14,1 13,0 15 8 N 1018,3 10
18.10.2018 23:00:00 14,1 12,8 11 6 NNO 1018,0 12
18.10.2018 22:00:00 14,1 13,0 15 8 NNO 1017,5 11
18.10.2018 21:00:00 14,0 12,9 9 5 NNO 1017,0 10
18.10.2018 20:00:00 14,3 13,0 16 9 N 1016,7 15
18.10.2018 19:00:00 15,4 13,3 11 6 N 1016,0 18
18.10.2018 18:00:00 16,0 13,5 15 8 N 1015,8 19
18.10.2018 17:00:00 16,7 13,3 16 9 N 1015,8 30
18.10.2018 16:00:00 17,1 12,3 8 4 NNO 1015,8 30
18.10.2018 15:00:00 16,6 13,2 9 5 NNO 1016,1 22
18.10.2018 14:00:00 16,0 12,9 13 7 N 1016,8 30
18.10.2018 13:00:00 15,0 12,6 11 6 N 1017,0 30
18.10.2018 12:00:00 14,3 12,0 9 5 N 1017,2 30
18.10.2018 11:00:00 13,8 12,4 13 7 N 1016,9 25
18.10.2018 10:00:00 13,3 11,9 8 4 NNO 1016,5 30
18.10.2018 09:00:00 13,2 12,3 9 5 N 1015,5 21
18.10.2018 08:00:00 12,8 12,2 11 6 NNO 1015,0 12
18.10.2018 07:00:00 12,5 11,9 13 7 N 1014,7 7
18.10.2018 06:00:00 12,4 11,8 11 6 N 1014,3 7
18.10.2018 05:00:00 12,4 11,9 8 4 NNO 1014,4 7
18.10.2018 04:00:00 12,1 11,6 13 7 N 1014,4 8
18.10.2018 03:00:00 12,1 11,5 16 9 N 1014,3 8
18.10.2018 02:00:00 12,0 11,7 13 7 N 1015,0 7
18.10.2018 01:00:00 12,1 11,8 11 6 N 1015,4 8
18.10.2018 00:00:00 12,2 11,9 9 5 N 1015,4 4,9

tt = temperatuur
td = dauwpunt
ff = windsnelheid
dd = windrichting
ppp = luchtdruk
vv = zicht

Weerstations in de omgeving